Location: Unspecified
(40.9447°N, 78.9903°W)
Time: 14:15:21
(UTC-04:00)

Cosmos 1674 - Pass Details

Date: 01 August 2021
Orbit: 491 x 516 km, 82.5° (Epoch: 23 September)

Event Time Altitude Azimuth Distance (km) Brightness Sun altitude
Rises 02:35:09 0° 13° (NNE) 2,645 7.5 -28.7°
Reaches altitude 10° 02:38:19 10° 41° (NE) 1,749 6.2 -28.5°
Maximum altitude 02:40:11 13° 71° (ENE) 1,552 5.5 -28.4°
Enters shadow 02:41:04 12° 85° (E) 1,594 5.4 -28.3°
